{"data":{"norad_id":67768,"intl_designator":"2026-030E","name":"KUIPER-00180","alt_names":[],"object_type":"PAYLOAD","status":"ACTIVE","operator":null,"country":"US","launch_date":"2026-02-12","launch_site_code":"FRGUI","launch_vehicle":null,"mission":null,"orbit_class":"UNKNOWN","rcs_meters":null,"size_class":null,"mass_kg":null,"dimensions":null,"purposes":[],"wikipedia_slug":null,"has_3d_model":false,"image_url":null,"decayed_at":null,"tle_current":{"epoch":"2026-09-20T09:55:09.607296Z","epoch_age_seconds":96718,"freshness":"FRESH","line1":"1 67768U 26030E   26263.41330564  .00001702  00000+0  25229-3 0  9992","line2":"2 67768  51.8983  67.0306 0000697 130.3287 229.7736 14.79928401 34084","mean_motion":14.79928401,"eccentricity":6.97e-5,"inclination_deg":51.8983,"raan_deg":67.0306,"arg_perigee_deg":130.3287,"mean_anomaly_deg":229.7736,"bstar":0.00025229,"rev_number":3408,"period_min":97.302004544746,"perigee_km":629.0617113218,"apogee_km":630.03858291011,"semimajor_km":7007.687147116,"source":"CELESTRAK","updated_at":"2026-09-21T09:00:16.827989Z"}}}